Flag for Germany Weather past 2 weeks in Stassfurt, Saxony-Anhalt, Germany

Now
63 °F

Overcast.


Feels Like: 63 °F
Forecast: 53 / 66 °F
Wind: 3 mph from Southwest

Location: Magdeburg

Current Time: Aug 22, 2014 at 10:14:50 PM

Latest Report: Aug 22, 2014 at 10:00 PM


Visibility: 44 mi

Pressure: 29.87 "Hg

Humidity: 47%

Dew point: 42 °F

Location of StassfurtLocation

Historic Weather in Stassfurt — Graph

°F

Stassfurt temperature yesterday

Maximum temperature yesterday: 67 °F (at 4:00 PM)
Minimum temperature yesterday: 47 °F (at 4:00 AM)
Average temperature yesterday: 56 °F

Past Weeks' High & Low Weather Summary

 TemperatureHumidityPressure
High83 °F (Aug 9, 1:00 PM)98% (Aug 8, 6:00 AM)30.03 "Hg (Aug 8, 6:00 AM)
Low47 °F (Aug 21, 4:00 AM)32% (Aug 22, 3:00 PM)29.62 "Hg (Aug 18, 3:00 PM)
Average63 °F69%29.86 "Hg
* Reported Aug 7 9:00 PM — Aug 22 9:00 PM, Stassfurt, Weather by CustomWeather, © 2014

Note: Actual official high and low records may vary slightly from our data, if they occured in-between our weather recording intervals... More about our weather records

Advertising

Stassfurt weather history for previous 24 hours

 ConditionsComfort  
Time TempWeatherWind HumidityBarometerVisibility
9:00 PM
Aug 22
64 °FOvercast.3 mph47%29.86 "Hg43 mi
8:00 PM65 °FOvercast.5 mph42%29.86 "Hg43 mi
7:00 PM67 °FOvercast.3 mph40%29.86 "Hg40 mi
6:00 PM69 °FPartly sunny.6 mph36%29.87 "Hg25 mi
5:00 PM69 °FOvercast.5 mph36%29.88 "Hg31 mi
4:00 PM70 °FPartly sunny.6 mph34%29.88 "Hg37 mi
3:00 PM69 °FOvercast.7 mph32%29.89 "Hg37 mi
2:00 PM68 °FOvercast.5 mph39%29.90 "Hg37 mi
1:00 PM67 °FOvercast.6 mph41%29.92 "Hg37 mi
12:00 PM68 °FOvercast.5 mph39%29.92 "Hg31 mi
11:00 AM65 °FPartly sunny.5 mph49%29.93 "Hg31 mi
10:00 AM63 °FPartly sunny.3 mph56%29.94 "Hg31 mi
9:00 AM57 °FOvercast.2 mph72%29.94 "Hg28 mi
8:00 AM55 °FOvercast.2 mph75%29.94 "Hg25 mi
7:00 AM55 °FOvercast.3 mph74%29.94 "Hg22 mi
6:00 AM54 °FOvercast.2 mph77%29.94 "Hg19 mi
4:00 AM54 °FOvercast.2 mph77%29.96 "Hg14 mi
3:00 AM54 °FOvercast.1 mph79%29.97 "Hg11 mi
2:00 AM54 °FOvercast.1 mph79%29.98 "Hg11 mi
1:00 AM54 °FOvercast.1 mph77%29.99 "Hg11 mi
12:00 AM52 °FOvercast.1 mph87%29.99 "Hg10 mi
11:00 PM
Aug 21
52 °FPassing clouds.1 mph86%30.00 "Hg7 mi
10:00 PM54 °FClear.1 mph79%29.99 "Hg17 mi
Weather by CustomWeather, © 2014

See weather overviewHow to use our weather pages